User: anonymous   Login
Location: Huntington
(40.8831°N, 85.4975°W)
Time: 00:50:21
(UTC-04:00)
Language:

Envisat - Orbit

View from above orbital plane
View from above orbital plane
View from above satellite
View from above satellite

Ground track
Ground track

The orbit data is extracted from the following two-line orbital elements,

1 27386U 02009A   21137.43446671  .00000012  00000-0  17440-4 0  9999
2 27386  98.1482 133.0769 0001276  86.1222  78.2295 14.38025661  6540
Epoch (UTC): 17 May 2021 10:25:37
Eccentricity: 0.0001276
inclination: 98.1482°
perigee height: 764 km
apogee height: 766 km
right ascension of ascending node: 133.0769°
argument of perigee: 86.1222°
revolutions per day: 14.38025661
mean anomaly at epoch: 78.2295°
orbit number at epoch: 654

The dashed part of the orbit path shows where the satellite is in the earth's shadow,  

DLR